Weather History for Sidney, NE

Change the Weather History Date:

Monday, April 8, 2013

  Actual Average Record
Temperature  
Mean Temperature 44 °F 45 °F  
Max Temperature 68 °F 59 °F 84 °F (1988)
Min Temperature 20 °F 30 °F 7 °F (1957)
Degree Days  
Heating Degree Days 21 20  
Month to date heating degree days 141 170  
Since 1 July heating degree days 5748 5555  
Cooling Degree Days 0 0  
Month to date cooling degree days 0 0  
Year to date cooling degree days 0 0  
Moisture  
Dew Point 31 °F    
Average Humidity 58    
Maximum Humidity 92    
Minimum Humidity 24    
Precipitation  
Precipitation 0.61 in 0.06 in 0.87 in (1958)
Month to date precipitation 0.66 0.41  
Year to date precipitation 1.61 2.03  
Sea Level Pressure  
Sea Level Pressure 29.63 in    
Wind  
Wind Speed 19 mph (NNE)    
Max Wind Speed 41 mph    
Max Gust Speed 53 mph    
Visibility 7 miles    
Events Fog , Rain , Snow , Thunderstorm    
T = Trace of Precipitation, MM = Missing Value Source: NWS Daily Summary

Daily Weather History Graph

Daily Weather History Graph

Search for Another Location

Airport:

Trip Planner

Search our weather history database for the weather conditions in past years. The results will help you decide how hot, cold, wet, or windy it might be!

Date:

Astronomy

Apr. 08, 2013 Rise Set
Actual Time 6:23 AM MDT 7:24 PM MDT
Civil Twilight 5:55 AM MDT 7:52 PM MDT
Nautical Twilight 5:21 AM MDT 8:26 PM MDT
Astronomical Twilight 4:46 AM MDT 9:01 PM MDT
Moon 5:15 AM MDT (4/8) 6:00 PM MDT (4/8)
Length of Visible Light 13h 57m
Length of Day
13h 01m
Waning Crescent, 3% of the Moon is Illuminated
Apr 8
Waning Crescent
Apr 10
New
Apr 18
First Quarter
Apr 25
Full
May 2
Last Quarter

Hourly Weather History & Observations

Time (MDT) Temp. Windchill Dew Point Humidity Pressure Visibility Wind Dir Wind Speed Gust Speed Precip Events Conditions
12:53 AM 50.0 °F - 37.0 °F 61% 29.57 in 10.0 mi SSW 16.1 mph 27.6 mph 0.00 in   Mostly Cloudy
1:53 AM 46.9 °F - 35.1 °F 63% 29.60 in 10.0 mi West 9.2 mph - N/A   Scattered Clouds
2:53 AM 46.0 °F 41.0 °F 34.0 °F 63% 29.59 in 10.0 mi West 10.4 mph - N/A   Scattered Clouds
3:53 AM 36.0 °F 29.6 °F 30.0 °F 79% 29.60 in 10.0 mi WSW 8.1 mph - N/A   Clear
4:53 AM 35.1 °F 27.9 °F 30.0 °F 82% 29.61 in 10.0 mi WSW 9.2 mph - N/A   Clear
5:53 AM 37.0 °F 29.8 °F 32.0 °F 82% 29.61 in 10.0 mi WSW 10.4 mph - N/A   Clear
6:53 AM 36.0 °F 32.1 °F 32.0 °F 86% 29.63 in 10.0 mi WSW 4.6 mph - N/A   Clear
7:53 AM 44.1 °F 40.1 °F 35.1 °F 71% 29.62 in 10.0 mi NW 6.9 mph - N/A   Clear
8:53 AM 53.1 °F - 36.0 °F 52% 29.59 in 10.0 mi Calm Calm - N/A   Clear
9:53 AM 61.0 °F - 35.1 °F 38% 29.58 in 10.0 mi SE 6.9 mph - N/A   Clear
10:53 AM 61.0 °F - 30.9 °F 32% 29.60 in 10.0 mi SSE 11.5 mph - N/A   Partly Cloudy
11:53 AM 64.0 °F - 30.9 °F 29% 29.55 in 10.0 mi ESE 9.2 mph - N/A   Partly Cloudy
12:53 PM 66.9 °F - 28.9 °F 24% 29.51 in 10.0 mi ESE 18.4 mph - N/A   Clear
1:53 PM 66.0 °F - 28.0 °F 24% 29.49 in 10.0 mi SE 19.6 mph 29.9 mph N/A   Overcast
2:53 PM 64.0 °F - 28.9 °F 27% 29.45 in 10.0 mi East 15.0 mph - N/A   Mostly Cloudy
3:01 PM 62.6 °F - 28.4 °F 27% 29.52 in 10.0 mi East 15.0 mph - N/A Thunderstorm Thunderstorm
3:53 PM 50.0 °F - 39.0 °F 66% 29.44 in 10.0 mi North 39.1 mph 52.9 mph 0.06 in Thunderstorm Unknown
4:07 PM 48.2 °F - 39.2 °F 71% 29.62 in 10.0 mi WNW 24.2 mph 40.3 mph N/A Thunderstorm Thunderstorm
4:53 PM 46.0 °F 35.9 °F 42.1 °F 86% 29.56 in 10.0 mi NE 35.7 mph 48.3 mph 0.05 in Rain , Thunderstorm Light Rain
5:04 PM 44.6 °F 34.2 °F 41.0 °F 87% 29.56 in 10.0 mi NE 33.4 mph 50.6 mph 0.00 in   Mostly Cloudy
5:24 PM 42.8 °F 31.9 °F 39.2 °F 87% 29.56 in 10.0 mi NE 32.2 mph 47.2 mph 0.00 in   Mostly Cloudy
5:35 PM 42.8 °F 31.1 °F 39.2 °F 87% 29.55 in 10.0 mi NE 38.0 mph 47.2 mph 0.00 in   Mostly Cloudy
5:53 PM 43.0 °F 31.7 °F 39.9 °F 89% 29.58 in 10.0 mi NE 35.7 mph 49.5 mph 0.00 in   Overcast
6:53 PM 37.9 °F 24.4 °F 36.0 °F 93% 29.60 in 10.0 mi NE 38.0 mph 48.3 mph 0.00 in   Overcast
7:10 PM 37.4 °F 25.9 °F 35.6 °F 93% 29.65 in 10.0 mi NNE 25.3 mph 43.7 mph N/A Thunderstorm Overcast
7:40 PM 35.6 °F 23.2 °F 33.8 °F 93% 29.68 in 10.0 mi NNE 26.5 mph 34.5 mph 0.01 in Rain Light Rain
7:53 PM 36.0 °F 23.9 °F 34.0 °F 93% 29.68 in 10.0 mi NNE 25.3 mph 34.5 mph 0.02 in Rain Light Rain
8:05 PM 35.6 °F 23.0 °F 33.8 °F 93% 29.65 in 8.0 mi NE 27.6 mph 41.4 mph 0.01 in Rain , Thunderstorm Light Rain
8:35 PM 33.8 °F 20.1 °F 32.0 °F 93% 29.64 in 7.0 mi NNE 29.9 mph 42.6 mph 0.04 in Rain , Thunderstorm Light Rain
8:53 PM 34.0 °F 21.0 °F 32.0 °F 92% 29.65 in 3.0 mi NNE 26.5 mph 39.1 mph 0.09 in Rain , Thunderstorm Rain
9:24 PM 33.8 °F 20.5 °F 30.2 °F 87% 29.69 in 3.0 mi North 27.6 mph 32.2 mph 0.12 in Rain Light Freezing Rain
9:35 PM 32.0 °F 17.6 °F 30.2 °F 93% 29.68 in 3.0 mi NNE 29.9 mph 38.0 mph 0.16 in Rain , Thunderstorm Light Freezing Rain
9:48 PM 32.0 °F 17.0 °F 30.2 °F 93% 29.69 in 2.5 mi NNE 33.4 mph 46.0 mph 0.21 in Rain , Thunderstorm Light Freezing Rain
9:53 PM 32.0 °F 17.6 °F 30.0 °F 92% 29.69 in 2.5 mi NNE 29.9 mph 41.4 mph 0.23 in Rain , Thunderstorm Light Freezing Rain
10:02 PM 32.0 °F 17.0 °F 28.4 °F 87% 29.70 in 3.0 mi NNE 33.4 mph 42.6 mph 0.03 in Rain , Thunderstorm Light Freezing Rain
10:12 PM 30.2 °F 15.4 °F 28.4 °F 93% 29.74 in 3.0 mi NNE 28.8 mph 39.1 mph 0.06 in Rain , Thunderstorm Light Freezing Rain
10:27 PM 30.2 °F 16.8 °F 28.4 °F 93% 29.78 in 2.0 mi North 23.0 mph 29.9 mph 0.09 in Rain Light Freezing Rain
10:33 PM 30.2 °F 15.4 °F 28.4 °F 93% 29.74 in 1.2 mi NNE 28.8 mph 38.0 mph 0.10 in Rain Light Freezing Rain
10:36 PM 28.4 °F 12.3 °F 28.4 °F 100% 29.70 in 1.0 mi North 32.2 mph 40.3 mph 0.11 in Snow Light Snow
10:40 PM 28.4 °F 12.3 °F 26.6 °F 93% 29.68 in 0.8 mi NNE 32.2 mph 40.3 mph 0.12 in Snow , Thunderstorm Light Snow
10:48 PM 28.4 °F 12.7 °F 26.6 °F 93% 29.69 in 0.5 mi NNE 29.9 mph 42.6 mph 0.13 in Fog , Snow , Thunderstorm Light Snow
10:53 PM 28.0 °F 11.8 °F 26.1 °F 92% 29.67 in 0.5 mi NNE 32.2 mph 41.4 mph 0.13 in Fog , Snow , Thunderstorm Light Snow
11:00 PM 26.6 °F 9.8 °F 24.8 °F 93% 29.69 in 1.0 mi NNE 32.2 mph 43.7 mph 0.00 in Snow Light Snow
11:03 PM 26.6 °F 9.8 °F 24.8 °F 93% 29.71 in 1.2 mi North 32.2 mph 43.7 mph 0.00 in   Overcast
11:16 PM 26.6 °F 11.4 °F 24.8 °F 93% 29.76 in 2.5 mi North 25.3 mph 34.5 mph 0.00 in   Overcast
11:23 PM 26.6 °F 10.6 °F 23.0 °F 86% 29.73 in 2.0 mi NNE 28.8 mph 34.5 mph 0.00 in   Overcast
11:34 PM 24.8 °F 8.1 °F 21.2 °F 86% 29.74 in 1.5 mi North 28.8 mph 38.0 mph 0.02 in Snow Blowing Snow
11:53 PM 23.0 °F 4.9 °F 21.0 °F 92% 29.73 in 1.8 mi North 32.2 mph 39.1 mph 0.03 in Snow Blowing Snow
11:57 PM 23.0 °F 5.4 °F 19.4 °F 86% 29.75 in 2.0 mi North 29.9 mph 39.1 mph N/A Snow Blowing Snow